Regional Weather Roundup
Issued by NWS

Home | Current Version | Previous Version | Text Only | Print | Product List | Glossary On
Versions: 1 2 3 4 5 6 7 8 9 10 11 12 13 14 15 16 17 18 19 20 21 22 23 24 25 26 27 28 29 30 31 32 33 34 35 36 37 38 39 40 41 42 43 44 45 46 47 48 49 50
000
ASUS44 KFWD 231210
RWRTX
NORTH TEXAS HOURLY WEATHER ROUNDUP
NATIONAL WEATHER SERVICE FORT WORTH TX
700 AM CDT TUE SEP 23 2014

NOTE: "FAIR" INDICATES FEW OR NO CLOUDS BELOW 12,000 FEET WITH NO
SIGNIFICANT WEATHER AND/OR OBSTRUCTIONS TO VISIBILITY.

TXZ118-119-231300-
DALLAS/FORT WORTH METROPLEX

CITY           SKY/WX    TMP DP  RH WIND       PRES   REMARKS
DFW AIRPORT    MOCLDY    64  53  67 E7        30.18R
6HR MIN TEMP:  63; 6HR MAX TEMP:  71;

DALLAS LOVE    PTCLDY    65  53  65 E8        30.19R
6HR MIN TEMP:  64; 6HR MAX TEMP:  72;

FTW MEACHAM    CLEAR     64  53  67 E6        30.17S
6HR MIN TEMP:  64; 6HR MAX TEMP:  71;

DAL-EXECUTIVE  CLEAR     62  53  72 E6        30.18R
6HR MIN TEMP:  59; 6HR MAX TEMP:  69;

FTW-ALLIANCE   PTCLDY    54  51  90 CALM      30.17S
6HR MIN TEMP:  54; 6HR MAX TEMP:  66;

FTW-NAS-JRB    PTCLDY    67  51  56 CALM      30.22S
6HR MIN TEMP:  66; 6HR MAX TEMP:  74;

FTW-SPINKS     CLEAR     59  52  77 CALM      30.19S
ARLINGTON      CLEAR     64  52  64 E6        30.17S
6HR MIN TEMP:  64; 6HR MAX TEMP:  71;

GRAND PRAIRIE  CLEAR     64  52  63 MISG      30.19S
ADDISON        PTCLDY    64  52  63 E7        30.19R
MESQUITE       CLEAR     57  52  82 CALM      30.19R
LANCASTER      PTCLDY    58  51  78 CALM      30.19S
6HR MIN TEMP:  56; 6HR MAX TEMP:  65;

$$

TXZ091>094-102>105-117-120-121-131>134-231300-
NORTH CENTRAL TEXAS

CITY           SKY/WX    TMP DP  RH WIND       PRES   REMARKS
SHRMAN/DENISON CLEAR     56  53  90 CALM      30.21S
6HR MIN TEMP:  55; 6HR MAX TEMP:  63;

GAINESVILLE    CLEAR     55  51  85 E3        30.21S
6HR MIN TEMP:  55; 6HR MAX TEMP:  62;

BOWIE          CLEAR     57  53  85 CALM      30.18F
6HR MIN TEMP:  56; 6HR MAX TEMP:  62;

BRIDGEPORT     PTCLDY    55  54  99 CALM      30.20S
6HR MIN TEMP:  54; 6HR MAX TEMP:  65;

DECATUR        CLEAR     58  51  77 E3        30.19S
6HR MIN TEMP:  58; 6HR MAX TEMP:  65;

DENTON         CLEAR     55  52  89 CALM      30.19R
6HR MIN TEMP:  54; 6HR MAX TEMP:  68;

MCKINNEY       CLEAR     54  51  90 N5        30.20R
6HR MIN TEMP:  52; 6HR MAX TEMP:  65;

GREENVILLE     CLEAR     55  52  88 CALM      30.19S
ROCKWALL       CLEAR     59  55  86 E5        30.18R
6HR MIN TEMP:  59; 6HR MAX TEMP:  64;

TERRELL        CLEAR     61  53  75 NE5       30.18R
6HR MIN TEMP:  61; 6HR MAX TEMP:  68;

WAXAHACHIE     PTCLDY    58  51  77 NE5       30.19S
6HR MIN TEMP:  58; 6HR MAX TEMP:  65;

CLEBURNE       PTCLDY    61  55  82 CALM      30.19R
GRANBURY       CLEAR     58  53  83 CALM      30.19S
6HR MIN TEMP:  58; 6HR MAX TEMP:  71;

$$

TXZ083>090-098>101-113>116-127>130-139>142-154-155-231300-
WESTERN NORTH TEXAS

CITY           SKY/WX    TMP DP  RH WIND       PRES   REMARKS
WICHITA FALLS  CLEAR     59  53  80 SE8       30.17S
6HR MIN TEMP:  59; 6HR MAX TEMP:  64;

WF-KICKAPOO    CLEAR     60  53  76 E6        30.19S
6HR MIN TEMP:  60; 6HR MAX TEMP:  65;

VERNON         CLEAR     61  54  78 E6        30.18S
6HR MIN TEMP:  61; 6HR MAX TEMP:  94;

ABILENE        MOCLDY    65  53  65 SE6       30.18R
6HR MIN TEMP:  65; 6HR MAX TEMP:  74;

ABILENE-DYESS  MOCLDY    67  50  53 SE6       30.17S
6HR MIN TEMP:  66; 6HR MAX TEMP:  74;

BRECKENRIDGE   PTCLDY    66  50  57 SE5       30.18R
6HR MIN TEMP:  66; 6HR MAX TEMP:  72;

GRAHAM         CLEAR     63  51  64 CALM      30.16F
6HR MIN TEMP:  63; 6HR MAX TEMP:  69;

MINERAL WELLS  PTCLDY    59  51  75 CALM      30.17R
6HR MIN TEMP:  59; 6HR MAX TEMP:  69;

STEPHENVILLE   PTCLDY    61  52  71 CALM      30.20S
6HR MIN TEMP:  61; 6HR MAX TEMP:  68;

COMANCHE       MOCLDY    61  54  76 CALM      30.18S
6HR MIN TEMP:  61; 6HR MAX TEMP:  68;

BROWNWOOD      CLOUDY    64  55  72 E3        30.17S
COLEMAN        PTCLDY    65  56  72 CALM      30.18S
6HR MIN TEMP:  64; 6HR MAX TEMP:  71;

BRADY          CLEAR     64  55  72 E5        30.16S
$$

TXZ143>147-156>162-174-175-231300-
CENTRAL TEXAS

CITY           SKY/WX    TMP DP  RH WIND       PRES   REMARKS
WACO           CLEAR     57  54  89 N5        30.16R
6HR MIN TEMP:  57; 6HR MAX TEMP:  67;

WACO-TSTC      CLEAR     59  55  88 N7        30.16
WACO-MCGREGOR  CLEAR     61  48  63 NE3       30.17R
6HR MIN TEMP:  61; 6HR MAX TEMP:  72;

HILLSBORO      CLEAR     62  53  70 E8        30.17S
6HR MIN TEMP:  62; 6HR MAX TEMP:  68;

CORSICANA      PTCLDY    62  54  74 E6        30.18R
6HR MIN TEMP:  62; 6HR MAX TEMP:  69;

MEXIA          PTCLDY    58  53  83 CALM      30.15S
6HR MIN TEMP:  58; 6HR MAX TEMP:  66;

HEARNE         CLEAR     63  55  74 NE3       30.14S
6HR MIN TEMP:  63; 6HR MAX TEMP:  71;

CAMERON        CLEAR     62  56  82 CALM      30.14S
6HR MIN TEMP:  62; 6HR MAX TEMP:  72;

TEMPLE         PTCLDY    63  50  63 E3        30.15R
6HR MIN TEMP:  63; 6HR MAX TEMP:  70;

KILLEEN        PTCLDY    64  55  72 NE6       30.15R
KILLEEN-SKYLRK CLEAR     63  52  67 CALM      30.14R
6HR MIN TEMP:  63; 6HR MAX TEMP:  72;

FORT HOOD      CLEAR     65  55  70 CALM      30.16R
6HR MIN TEMP:  65; 6HR MAX TEMP:  74;

GATESVILLE     PTCLDY    63  54  72 CALM      30.18R
HAMILTON       PTCLDY    61  53  75 CALM      30.18R
6HR MIN TEMP:  61; 6HR MAX TEMP:  70;

LAMPASAS       PTCLDY    63  56  78 CALM      30.16R
6HR MIN TEMP:  63; 6HR MAX TEMP:  71;

$$

TXZ095>097-106>112-122>126-135>138-148>153-164>167-231300-
EAST TEXAS

CITY           SKY/WX    TMP DP  RH WIND       PRES   REMARKS
PARIS          CLEAR     55  46  71 E6        30.22R
6HR MIN TEMP:  55; 6HR MAX TEMP:  61;

SULPHUR SPRNGS CLEAR     55  54  95 E5        30.22S
6HR MIN TEMP:  55; 6HR MAX TEMP:  60;

MOUNT PLEASANT CLEAR     55  53  91 CALM      30.22R
6HR MIN TEMP:  53; 6HR MAX TEMP:  60;

GILMER         CLEAR     57  54  88 CALM      30.21R
MINEOLA        CLEAR     52  52 100 CALM      30.20R
TYLER          CLEAR     58  53  84 E5        30.18R
6HR MIN TEMP:  58; 6HR MAX TEMP:  65;

LONGVIEW       CLEAR     59  52  77 CALM      30.17S
6HR MIN TEMP:  56; 6HR MAX TEMP:  65;

MARSHALL       CLEAR     60  54  82 NE3       30.20R
6HR MIN TEMP:  58; 6HR MAX TEMP:  68;

ATHENS         CLEAR     59  54  82 CALM      30.16S
PALESTINE      CLEAR     62  54  73 NE9       30.17R
JACKSONVILLE   CLEAR     60  53  79 NE5       30.19R
HENDERSON      CLEAR     55  54  97 CALM      30.19R
6HR MIN TEMP:  54; 6HR MAX TEMP:  64;

NACOGDOCHES    CLEAR     57  52  82 NE5       30.16S
6HR MIN TEMP:  54; 6HR MAX TEMP:  66;

LUFKIN         CLEAR     61  54  77 N6        30.15R
6HR MIN TEMP:  61; 6HR MAX TEMP:  68;

$$

SUPPLEMENTAL OBSERVATIONS (CENTRAL)

CITY           SKY/WX    TMP DP  RH WIND       PRES   REMARKS
PAT MAYSE LAKE   N/A     55  52  88 VRB2        N/A
GREENVILLE       N/A     57  52  82 E6          N/A
CEDAR HILL       N/A     63  52  67 E2G13       N/A
MCGREGOR         N/A     61  52  72 NE3         N/A
TEMPLE           N/A     63  54  72 NE8         N/A
$$

SUPPLEMENTAL OBSERVATIONS (WEST)

CITY           SKY/WX    TMP DP  RH WIND       PRES   REMARKS
MILLERS CREEK    N/A     66  50  55 SE7         N/A
GRANBURY         N/A     57  52  82 W1          N/A


USA.gov is the U.S. government's official web portal to all federal, state and local government web resources and services.